User: anonymous   Login
Location: Poughquag
(41.6090°N, 73.6820°W)
Time: 14:48:01
(UTC-05:00)
Language:

N. Korean satellite - Orbit

View from above orbital plane
View from above orbital plane
View from above satellite
View from above satellite

Ground track
Ground track

The orbit data is extracted from the following two-line orbital elements,

1 39026U 12072A   20056.71011049  .00000798  00000-0  31067-4 0  9993
2 39026  97.2201  56.8858 0035838 285.9523  73.7769 15.28355766400083
Epoch (UTC): 25 February 2020 17:02:33
Eccentricity: 0.0035838
inclination: 97.2201°
perigee height: 456 km
apogee height: 505 km
right ascension of ascending node: 56.8858°
argument of perigee: 285.9523°
revolutions per day: 15.28355766
mean anomaly at epoch: 73.7769°
orbit number at epoch: 40008

The dashed part of the orbit path shows where the satellite is in the earth's shadow,  

DLR